This demonstration page uses our WeatherBlox Daily Observations layout. Learn more.

Hourly Observations for May 18, 2017

Temp ( °F °C ) Dew Point ( °F °C ) Humidity (%) Winds ( mph kmh ) Pressure ( in mb ) Visibility ( mi km ) Precip ( " mm )
12:15 am 00:15 Partly Cloudy 50 10.1 46 8 87 87 N 13 20 29.77 1008 10 16.09344 0 0
12:35 am 00:35 Partly Cloudy 50 10 47 8.1 88 88 N 9 15 29.77 1008 10 16.09344 0 0
12:55 am 00:55 Partly Cloudy 51 10.4 47 8.2 86 86 N 13 20 29.8 1009 10 16.09344 0 0
1:15 am 01:15 Cloudy 51 10.5 46 7.8 84 84 N 16 26 29.8 1009 10 16.09344 0 0
1:35 am 01:35 Cloudy 51 10.5 46 7.7 83 83 NNE 12 19 29.8 1009 10 16.09344 0 0
1:55 am 01:55 Cloudy 50 10.1 45 7.3 83 83 NNE 14 22 29.8 1009 10 16.09344 0 0
2:15 am 02:15 Cloudy 50 10 45 7.4 84 84 NNE 14 22 29.83 1010 10 16.09344 0 0
2:35 am 02:35 Cloudy 50 9.8 45 7.4 85 85 N 17 28 29.8 1009 10 16.09344 0 0
2:55 am 02:55 Cloudy 49 9.5 45 7.3 86 86 NNE 17 28 29.8 1009 10 16.09344 0 0
3:15 am 03:15 Cloudy 49 9.5 45 7.3 86 86 NNE 17 28 29.8 1009 10 16.09344 0 0
3:35 am 03:35 Cloudy 49 9.5 45 7.1 85 85 NNE 15 24 29.83 1010 10 16.09344 0 0
3:55 am 03:55 Cloudy 49 9.6 45 7.1 85 85 NNE 14 22 29.83 1010 10 16.09344 0 0
4:15 am 04:15 Cloudy 49 9.6 45 7.2 85 85 NNE 16 26 29.83 1010 10 16.09344 0 0
4:35 am 04:35 Cloudy 49 9.6 45 7.3 86 86 NNE 15 24 29.83 1010 10 16.09344 0 0
4:55 am 04:55 Cloudy 49 9.5 45 7 85 85 NNE 16 26 29.83 1010 10 16.09344 0 0
5:15 am 05:15 Cloudy 49 9.6 45 7.1 85 85 NNE 16 26 29.83 1010 10 16.09344 0 0
5:35 am 05:35 Cloudy 49 9.6 45 7 84 84 NNE 16 26 29.83 1010 10 16.09344 0 0
5:55 am 05:55 Cloudy 49 9.6 45 7 84 84 NNE 15 24 29.83 1010 10 16.09344 0 0
6:15 am 06:15 Cloudy 49 9.6 45 7.1 85 85 NNE 13 20 29.83 1010 10 16.09344 0 0
6:35 am 06:35 Cloudy 49 9.5 44 6.8 83 83 NNE 18 30 29.83 1010 10 16.09344 0 0
6:55 am 06:55 Cloudy 49 9.3 45 7 86 86 NNE 17 28 29.83 1010 10 16.09344 0 0
7:15 am 07:15 Cloudy 49 9.2 45 7 86 86 NE 16 26 29.85 1011 10 16.09344 0 0
7:35 am 07:35 Cloudy 49 9.2 45 7 86 86 NNE 17 28 29.85 1011 10 16.09344 0 0
7:55 am 07:55 Cloudy 49 9.3 45 7.2 87 87 NE 14 22 29.88 1012 10 16.09344 0 0
8:15 am 08:15 Cloudy 49 9.3 45 7.1 86 86 NE 17 28 29.88 1012 10 16.09344 0 0
8:35 am 08:35 Cloudy 49 9.3 45 7.3 87 87 NE 15 24 29.88 1012 10 16.09344 0 0
8:55 am 08:55 Cloudy 48 9 45 7 87 87 NE 20 31 29.88 1012 10 16.09344 0 0
9:15 am 09:15 Cloudy 49 9.2 45 7 86 86 NE 18 30 29.88 1012 10 16.09344 0 0
9:35 am 09:35 Cloudy 49 9.5 45 7.4 87 87 NE 13 20 29.91 1013 10 16.09344 0 0
9:55 am 09:55 Cloudy 49 9.5 46 7.6 88 88 NE 16 26 29.91 1013 10 16.09344 0 0
10:15 am 10:15 Cloudy 49 9.5 46 7.5 87 87 NE 17 28 29.91 1013 10 16.09344 0 0
10:35 am 10:35 Cloudy 50 9.9 45 7.4 85 85 NE 21 33 29.91 1013 10 16.09344 0 0
10:55 am 10:55 Cloudy 50 10 45 7.4 84 84 NE 20 31 29.91 1013 10 16.09344 0 0
11:15 am 11:15 Cloudy 50 9.8 46 7.5 86 86 NE 18 30 29.91 1013 10 16.09344 0 0
11:35 am 11:35 Cloudy 50 10 46 7.5 85 85 ENE 18 30 29.91 1013 10 16.09344 0 0
11:55 am 11:55 Cloudy 50 10.1 46 7.5 84 84 ENE 21 33 29.91 1013 10 16.09344 0 0
12:15 pm 12:15 Cloudy 50 10 46 7.5 85 85 ENE 15 24 29.91 1013 10 16.09344 0 0
12:35 pm 12:35 Cloudy 49 9.6 45 7.3 86 86 NE 20 31 29.94 1014 10 16.09344 0 0
12:55 pm 12:55 Cloudy 49 9.5 46 7.6 88 88 ENE 17 28 29.91 1013 10 16.09344 0 0
1:15 pm 13:15 Cloudy 49 9.6 46 7.7 88 88 ENE 18 30 29.91 1013 10 16.09344 0 0
1:35 pm 13:35 Cloudy 49 9.7 46 7.7 87 87 NE 23 37 29.88 1012 10 16.09344 0 0
1:55 pm 13:55 Cloudy 50 9.8 46 7.9 88 88 ENE 15 24 29.91 1013 10 16.09344 0 0
2:15 pm 14:15 Cloudy 50 10.2 46 8 86 86 ENE 20 31 29.88 1012 10 16.09344 0 0
2:35 pm 14:35 Cloudy 51 10.3 46 7.8 85 85 ENE 21 33 29.91 1013 10 16.09344 0 0
2:55 pm 14:55 Cloudy 51 10.4 46 8 85 85 ENE 16 26 29.91 1013 10 16.09344 0 0
3:15 pm 15:15 Cloudy 51 10.4 46 8 85 85 E 20 31 29.94 1014 10 16.09344 0 0
3:35 pm 15:35 Cloudy 51 10.3 46 8 86 86 ENE 23 37 29.91 1013 10 16.09344 0 0
3:55 pm 15:55 Cloudy 50 10 46 8 88 88 ENE 18 30 29.91 1013 10 16.09344 0 0
4:15 pm 16:15 Cloudy 50 10.1 47 8.1 88 88 ENE 17 28 29.91 1013 10 16.09344 0 0
4:35 pm 16:35 Cloudy 50 10 47 8.1 88 88 ENE 20 31 29.91 1013 10 16.09344 0 0
4:55 pm 16:55 Cloudy 50 9.8 47 8.2 90 90 NE 18 30 29.88 1012 7 11.265408 0 0
5:15 pm 17:15 Cloudy 50 10 47 8.5 91 91 ENE 17 28 29.91 1013 7 11.265408 0 0
5:35 pm 17:35 Cloudy 50 10 47 8.5 91 91 NE 21 33 29.85 1011 7 11.265408 0 0
5:55 pm 17:55 Cloudy with Mist and Fog 50 10 47 8.5 91 91 NE 17 28 29.88 1012 5 8.04672 0 0
6:15 pm 18:15 Cloudy with Mist and Fog 50 10 47 8.5 91 91 ENE 15 24 29.88 1012 5 8.04672 0 0
6:35 pm 18:35 Cloudy 50 10 48 8.7 92 92 NE 16 26 29.88 1012 7 11.265408 0 0
6:55 pm 18:55 Cloudy with Nearby Thunderstorms 50 10 48 8.7 92 92 NE 13 20 29.91 1013 5 8.04672 0 0
7:15 pm 19:15 Cloudy with Light Drizzle 50 10 48 8.8 92 92 NE 10 17 29.94 1014 3 4.828032 0 0
7:35 pm 19:35 Cloudy with Light Drizzle 50 10 48 8.8 92 92 NE 15 24 29.91 1013 4 6.437376 0 0
7:55 pm 19:55 Cloudy with Mist and Fog 50 10 48 9 94 94 NE 14 22 29.94 1014 5 8.04672 0 0
8:15 pm 20:15 Cloudy with Light Rain 50 10 48 8.8 92 92 NE 14 22 29.94 1014 5 8.04672 0 0
8:35 pm 20:35 Cloudy with Rain 50 10 48 9 94 94 NE 14 22 29.94 1014 5 8.04672 0.01 0.254
8:55 pm 20:55 Cloudy with Light Thunderstorms 50 10 48 9 94 94 ENE 18 30 29.94 1014 5 8.04672 0.07 1.778
9:15 pm 21:15 Cloudy with Light Rain 50 10 48 8.9 93 93 E 24 39 29.94 1014 5 8.04672 0.02 0.508
9:35 pm 21:35 Cloudy with Light Rain 50 10 48 9 94 94 ENE 21 33 29.91 1013 7 11.265408 0.04 1.016
9:55 pm 21:55 Cloudy 50 10 48 8.8 92 92 NE 15 24 29.91 1013 10 16.09344 0.05 1.27
10:15 pm 22:15 Cloudy 50 10 48 8.7 92 92 NE 15 24 29.91 1013 10 16.09344 0 0
10:35 pm 22:35 Cloudy 50 10.1 48 8.7 91 91 NE 15 24 29.94 1014 10 16.09344 0 0
10:55 pm 22:55 Cloudy 50 10.2 48 8.7 91 91 NE 16 26 29.94 1014 10 16.09344 0 0
11:15 pm 23:15 Cloudy 50 10.2 48 8.7 91 91 NE 15 24 29.94 1014 10 16.09344 0 0
11:35 pm 23:35 Cloudy 51 10.5 48 8.8 89 89 ENE 17 28 29.94 1014 10 16.09344 0 0
11:55 pm 23:55 Cloudy 51 10.5 48 9 91 91 ENE 17 28 29.94 1014 10 16.09344 0 0

Powered by AerisWeather